Hourly Data Report for June 03, 2020

BORDEN AWOS
ONTARIO
Current Station Operator: DND

44°16'20.000" N
79°54'42.000" W
222.50 m
611B002
71534
YBN

Download Data

Hourly Data (June 2020)
Hourly Data Report for June 3, 2020
TIME
LST
Temp Definition
°C
Dew Point Definition
°C
Rel Hum Definition
%
Precip. Amount Definition
mm

Wind Dir Definition
10's deg

Wind Spd Definition
km/h
Visibility Definition
km
Stn Press Definition
kPa
Hmdx Definition


Wind Chill Definition


Weather Definition


00:00 14.8 14.8 100   36 4 2.3 97.86     LegendNANA
01:00 12.9 12.9 100     0 0.3 97.84     LegendNANA
02:00 12.4 12.4 100   20 4 0.3 97.81     LegendNANA
03:00 12.2 12.2 100     0 0.3 97.74     LegendNANA
04:00 12.2 12.2 100     0 8.0 97.74     LegendNANA
05:00 12.9 12.9 100   27 6 9.7 97.80     LegendNANA
06:00 15.8 15.6 99   21 6 14.5 97.76     LegendNANA
07:00 16.2 15.4 95   4 7 14.5 97.67     LegendNANA
08:00 16.9 16.0 94   35 7 14.5 97.69     LegendNANA
09:00 16.8 15.2 90   35 7 14.5 97.72     LegendNANA
10:00 18.0 15.8 87   34 6 14.5 97.73     LegendNANA
11:00 22.2 16.4 70   31 11 14.5 97.69 27   LegendNANA
12:00 21.5 15.7 70   34 19 14.5 97.76 26   LegendNANA
13:00 21.9 15.9 69   1 19 14.5 97.75 26   LegendNANA
14:00 23.2 16.2 65   35 20 14.5 97.74 28   LegendNANA
15:00 23.8 16.4 63   34 15 14.5 97.80 29   LegendNANA
16:00 23.3 14.7 59   32 20 14.5 97.79 27   LegendNANA
17:00 23.0 15.7 64   34 17 14.5 97.84 27   LegendNANA
18:00 22.3 15.7 66   33 9 14.5 97.84 27   LegendNANA
19:00 21.2 16.0 72   36 6 14.5 97.89 26   LegendNANA
20:00 18.3 15.8 85     0 14.5 97.91     LegendNANA
21:00 15.5 14.4 93   16 4 14.5 97.97     LegendNANA
22:00 14.5 13.0 91   22 11 14.5 98.01     LegendNANA
23:00 14.2 12.6 90   27 4 14.5 98.04     LegendNANA

Notes on Data Quality.

Legend

  • E = Estimated
  • M = Missing
  • NA = Not Available*
  • [empty] = Indicates an unobserved value
Date modified: